This is the latest recevied weather packets stored in our database for station/object W1ERB-13. If no packets are shown the sender has not sent any weather packets the latest 10 day(s).
| Time | Temp. | Humidity | Pressure | Rain* | Wind** | Luminosity | Snow |
|---|---|---|---|---|---|---|---|
| 1777612754 | 7.78° C | 74% | 1009.7 hPa | 0 mm | - | 0 W/m² | - |
| 1777612450 | 7.22° C | 77% | 1009.6 hPa | 0 mm | - | 0 W/m² | - |
| 1777612146 | 7.78° C | 77% | 1009.6 hPa | 0 mm | - | 0 W/m² | - |
| 1777611841 | 7.78° C | 74% | 1009.5 hPa | 0 mm | - | 0 W/m² | - |
| 1777611537 | 7.78° C | 72% | 1009.5 hPa | 0 mm | - | 0 W/m² | - |
| 1777611234 | 7.78° C | 74% | 1009.4 hPa | 0 mm | - | 0 W/m² | - |
| 1777610930 | 7.78° C | 74% | 1009.5 hPa | 0 mm | - | 0 W/m² | - |
| 1777610625 | 7.78° C | 75% | 1009.5 hPa | 0 mm | - | 0 W/m² | - |
| 1777610325 | 8.33° C | 70% | 1009.6 hPa | 0 mm | - | 0 W/m² | - |
| 1777610021 | 7.78° C | 74% | 1009.6 hPa | 0 mm | - | 0 W/m² | - |
| 1777609718 | 7.78° C | 74% | 1009.4 hPa | 0 mm | - | 0 W/m² | - |
| 1777609415 | 7.78° C | 75% | 1009.3 hPa | 0 mm | - | 0 W/m² | - |
| 1777609113 | 7.22° C | 76% | 1009.4 hPa | 0 mm | - | 0 W/m² | - |
| 1777608810 | 7.78° C | 76% | 1009.3 hPa | 0 mm | - | 0 W/m² | - |
| 1777608506 | 7.78° C | 74% | 1009.2 hPa | 0 mm | - | 0 W/m² | - |
| 1777608204 | 7.78° C | 74% | 1009.1 hPa | 0 mm | - | 0 W/m² | - |
| 1777607901 | 7.78° C | 76% | 1008.9 hPa | 0 mm | - | 0 W/m² | - |
| 1777607596 | 8.33° C | 75% | 1008.9 hPa | 0 mm | - | 0 W/m² | - |
| 1777607294 | 8.33° C | 75% | 1008.8 hPa | 0 mm | - | 0 W/m² | - |
| 1777606989 | 8.33° C | 76% | 1008.6 hPa | 0 mm | - | 0 W/m² | - |
| 1777606680 | 8.89° C | 76% | 1008.8 hPa | 0 mm | - | 0 W/m² | - |
| 1777606376 | 8.89° C | 73% | 1008.6 hPa | 0 mm | - | 0 W/m² | - |
| 1777606075 | 8.89° C | 75% | 1008.7 hPa | 0 mm | - | 0 W/m² | - |
| 1777605771 | 8.33° C | 77% | 1008.5 hPa | 0 mm | - | 0 W/m² | - |
| 1777605470 | 8.89° C | 77% | 1008.7 hPa | 0 mm | - | 0 W/m² | - |
* Rain latest hour (hover to see other rain measurements)
** Current wind speed in m/s (hover to see current wind gust speed)